sat.trackr.live / text

‹ back to catalog

STARLINK-32276

NORAD 60944 · 2024-155W

PAYLOAD ACTIVE UNKNOWN

§ Identity

Operator
Country
US
Launch date
2024-08-31
Launch site
AFWTR
Launch vehicle
Mass (kg)
RCS (m²)

Purposes: comms

External: N2YO · Heavens-Above · Gunter

§ Orbital elements

Epoch: 2026-09-20T19:10:22.812096Z

Period
93.85 min
Inclination
53.1602°
Eccentricity
0.0001250
Mean motion
15.34391220 rev/d
Perigee alt
461.9 km
Apogee alt
463.6 km
Semi-major
6,840.9 km
B*
4.4907e-5
RAAN
300.5198°
Arg perigee
100.3828°
Mean anomaly
259.7316°
Rev number
11,630

§ Raw data

STARLINK-322761 60944U 24155W   26263.79887514  .00001141  00000+0  44907-4 0  99922 60944  53.1602 300.5198 0001250 100.3828 259.7316 15.34391220116302

JSON: /api/v1/satellites/60944 · /tle

For live sub-satellite position, see the globe view (requires WebGL).

§ Visibility from observer

Set your observer location to see the next 7 days of passes ≥ 10°. The values pass through the URL so the page stays shareable.

No JS? Fill the form by hand. The geolocation button needs JavaScript.